User: anonymous   Login
Location: Camp Creek
(33.9000°N, 111.8167°W)
Time: 21:09:01
(UTC-07:00)
Language:

Cosmos 2322 Rocket - Orbit

View from above orbital plane
View from above orbital plane
View from above satellite
View from above satellite

Ground track
Ground track

The orbit data is extracted from the following two-line orbital elements,

1 23705U 95058B   18170.45854117 -.00000287  00000-0 -12330-3 0  9997
2 23705  71.0202 338.4703 0010354 100.5852 259.6437 14.15111990169142
Epoch (UTC): 19 June 2018 11:00:17
Eccentricity: 0.0010354
inclination: 71.0202°
perigee height: 834 km
apogee height: 849 km
right ascension of ascending node: 338.4703°
argument of perigee: 100.5852°
revolutions per day: 14.15111990
mean anomaly at epoch: 259.6437°
orbit number at epoch: 16914

The dashed part of the orbit path shows where the satellite is in the earth's shadow,  

DLR